Temp
20 20 20 20 20 20 21 21 20 18 18 23 23 23 23 23 23 23 24 24 24 23 24 24 23 23 22 22 22 22 21 21 21 21 21 20 20 19
19 19 20 20 19 20 20 21 21 21 18 22 22 22 23 24 24 24 24 24 24 23 24 24 24 23 23 23 22 22 22 22 21 21 21 20 20 20
20 19 19 19 19 19 19 19 19 20 18 21 21 22 22 23 24 24 24 24 23 24 24 25 24 24 23 23 22 21 21 21 21 21 21 20 20 21
19 19 19 19 19 19 19 19 19 19 19 19 20 21 22 22 23 24 23 23 23 24 24 24 24 24 22 23 22 21 21 21 20 20 20 20 20 20
19 19 18 18 19 18 18 18 18 18 18 18 18 20 21 21 21 22 22 23 23 23 24 25 24 23 23 22 22 21 21 21 21 21 21 20 20 20
19 19 18 18 18 18 18 17 17 18 17 18 18 19 19 20 20 20 20 21 21 23 23 23 23 23 22 21 21 21 21 21 20 20 20 20 20 20
19 19 18 18 18 18 17 17 17 17 17 17 17 17 17 18 18 18 19 20 20 21 21 22 22 22 22 21 21 21 21 20 20 20 20 20 20 20
18 18 19 19 18 17 17 17 17 16 17 16 16 16 17 17 18 18 18 18 17 20 20 20 20 21 21 21 21 20 20 20 20 19 19 19 19 19
18 18 18 18 17 17 17 17 17 17 17 17 17 17 17 17 18 18 18 17 18 19 19 20 20 20 20 20 20 20 20 20 20 19 19 19 19 19
17 18 18 18 18 17 17 17 17 17 17 17 17 17 17 17 17 17 17 17 18 18 19 19 19 19 19 19 19 19 19 19 19 19 19 19 19 19
17 18 18 18 17 17 17 17 17 17 16 16 16 17 17 17 17 17 17 17 17 18 18 19 19 19 19 19 19 19 19 19 19 19 19 19 19 19
17 18 18 18 17 17 17 16 16 16 16 17 17 18 18 18 18 18 17 17 16 16 17 18 18 19 19 19 19 18 18 18 18 18 19 18 19 18
18 18 17 17 17 17 16 16 16 15 15 15 16 17 18 19 19 18 18 17 17 17 18 17 17 18 18 18 19 19 19 18 18 19 19 18 18 18
18 18 17 17 17 17 17 16 16 15 15 15 16 17 18 18 18 18 18 18 18 18 17 17 17 17 16 16 18 18 18 19 19 19 19 19 18 17
18 17 17 17 17 17 17 17 17 16 16 16 16 17 18 18 18 18 18 18 18 18 17 17 17 17 16 16 16 17 18 18 18 18 18 18 18 17
18 18 17 17 17 17 18 18 17 17 16 17 17 17 17 17 18 18 18 18 18 18 18 18 17 17 16 16 15 16 16 17 17 17 18 17 17 17
18 17 17 17 17 17 18 18 18 17 17 17 17 17 17 17 18 18 18 18 17 18 18 18 18 16 16 16 15 17 17 17 17 17 17 17 17 17
17 17 16 16 16 16 17 17 18 18 18 18 17 17 17 17 17 18 18 17 17 17 17 18 18 16 15 16 16 17 17 16 17 17 17 17 17 18
16 16 15 15 16 16 16 16 16 18 18 18 18 19 18 18 17 18 17 17 17 17 17 17 17 16 11 12 18 17 17 18 17 17 17 17 17 18
15 15 15 15 14 15 15 15 16 17 17 17 18 19 19 18 17 17 17 17 17 17 17 17 16 16 14 13 16 18 18 18 17 17 17 17 17 17
13 13 13 13 13 13 13 13 14 15 15 16 17 16 16 15 16 17 17 17 17 16 16 17 18 18 17 15 14 16 18 18 18 18 18 17 17 17
11 11 11 11 10 11 11 11 12 12 12 12 12 12 13 13 13 13 14 14 15 15 16 17 18 17 16 15 15 16 18 18 18 18 17 18 17 13
11 10 10 10 9 9 9 9 9 8 7 8 8 9 10 10 11 12 13 12 13 13 14 15 16 17 17 16 16 16 16 18 18 18 18 18 18 18
Height
814 815 815 816 816 815 813 812 812 816 814 810 809 809 809 808 807 806 805 803 803 804 804 803 804 804 805 807 809 811 812 812 813 816 819 820 821 821
814 815 815 815 816 815 814 812 811 811 814 812 811 809 808 806 805 804 803 802 801 801 800 801 801 800 801 802 804 805 807 808 808 809 812 814 814 814
813 813 815 815 815 814 814 813 811 810 812 811 812 810 808 806 804 804 803 801 800 800 800 797 796 798 799 800 801 801 802 804 804 804 806 806 807 806
811 812 813 814 814 814 812 812 811 810 810 809 809 808 806 805 801 801 801 801 797 796 796 794 793 795 797 798 798 798 798 799 800 801 802 802 802 801
810 810 810 811 812 812 812 810 811 811 811 810 808 806 805 804 801 800 799 799 796 794 792 791 792 794 796 797 796 795 796 796 796 797 797 798 798 799
810 809 808 808 808 809 811 810 809 809 810 809 807 807 806 803 802 801 799 798 795 792 791 789 789 793 794 795 795 794 794 794 794 795 795 795 795 795
810 809 807 806 806 806 808 809 808 808 807 807 805 805 805 804 802 801 800 799 797 794 792 791 789 791 791 792 792 792 793 792 792 792 792 792 793 792
810 809 807 805 806 805 806 806 806 805 806 805 804 804 803 802 802 801 801 799 798 796 794 793 792 790 791 791 791 792 791 791 790 790 790 791 791 791
809 808 808 805 804 805 805 804 802 803 802 801 802 803 803 802 801 800 800 800 797 795 793 792 791 791 790 790 790 791 791 791 791 791 791 790 790 791
808 806 804 804 803 803 802 800 799 799 800 799 799 799 800 800 799 799 798 797 795 794 792 790 790 790 790 790 791 792 792 792 792 792 791 791 790 790
807 805 802 803 802 801 800 797 796 796 797 797 797 797 797 797 797 797 796 795 794 794 793 791 789 789 789 789 791 792 791 791 792 792 792 791 791 791
804 803 802 801 801 799 798 796 795 794 793 793 793 792 792 792 793 793 794 794 794 793 792 791 789 789 788 788 789 790 790 790 790 791 791 791 791 790
799 799 798 798 799 799 796 795 794 793 792 792 791 789 788 787 787 788 790 792 792 792 791 790 789 788 788 786 787 787 786 788 788 788 789 790 789 790
796 795 796 795 795 795 794 792 792 792 792 791 790 788 786 784 783 785 788 790 790 790 789 788 787 787 787 787 787 787 786 786 785 785 786 786 787 788
799 795 793 793 792 791 791 791 790 789 788 788 788 787 786 786 786 787 788 787 787 787 787 786 786 786 785 785 785 785 785 784 784 784 784 785 785 785
796 793 791 790 789 788 787 787 787 787 787 786 785 785 785 785 785 785 785 784 784 783 783 783 783 784 784 784 784 783 783 783 783 782 782 782 782 782
794 794 788 787 785 784 782 782 782 782 782 782 783 783 783 782 781 780 780 779 779 779 779 779 779 780 781 782 782 780 780 780 780 780 779 779 778 777
789 790 790 785 783 781 779 778 777 777 776 777 777 778 778 778 777 776 776 775 775 776 776 776 776 777 777 777 777 775 775 775 775 776 776 775 775 774
782 783 785 782 779 777 775 774 773 773 773 772 772 771 771 771 772 772 772 772 771 771 771 772 772 772 774 776 771 771 770 770 771 771 771 771 771 771
777 778 778 777 774 771 769 768 767 767 767 766 766 765 764 764 766 766 766 766 766 766 766 766 766 766 767 767 765 765 766 765 765 765 766 767 767 767
776 776 775 773 771 769 767 765 764 762 761 760 760 762 763 763 762 761 761 761 761 761 760 760 760 760 760 760 761 760 760 759 759 760 760 761 761 760
775 775 772 771 769 768 766 764 764 763 763 762 760 760 760 758 758 758 757 757 757 756 755 754 754 754 754 754 753 753 753 752 752 753 754 755 754 753
774 774 771 769 768 767 766 765 765 764 763 761 762 760 755 756 754 753 750 752 753 751 749 748 748 748 746 745 745 745 745 745 745 745 744 744 744 744
Wind_Speed
5 5 4 5 5 3 4 4 2 1 2 7 3 7 3 5 6 8 9 10 14 13 10 9 15 20 23 22 23 24 25 26 26 27 26 27 30 32
5 6 7 5 6 8 9 7 5 3 1 1 2 6 6 7 8 10 11 10 10 14 12 12 13 13 15 16 17 17 17 19 22 23 24 25 26 27
5 4 4 3 5 7 9 9 11 6 2 1 5 6 7 3 9 10 9 8 10 11 14 14 16 13 11 11 13 14 15 17 19 19 21 21 20 20
4 4 5 5 7 8 8 8 10 10 5 3 5 9 7 11 4 10 3 2 6 10 11 9 10 12 10 8 9 11 13 15 16 16 17 18 18 19
5 4 3 3 6 8 7 5 7 8 7 4 4 8 5 10 9 7 4 2 5 6 3 13 12 13 9 9 9 9 11 12 13 14 14 14 16 15
4 3 3 3 4 5 6 7 7 6 6 5 3 5 6 9 8 11 10 9 9 6 4 3 11 12 11 9 9 8 7 8 9 10 11 13 16 19
2 3 5 5 3 1 3 6 6 5 5 5 3 3 3 5 9 10 9 8 2 10 8 2 1 5 8 12 11 8 6 5 6 7 8 8 9 9
2 1 3 3 1 1 3 6 6 6 8 4 2 2 3 3 5 8 10 7 5 6 8 3 0 2 3 3 2 2 2 2 3 3 3 3 2 2
2 3 5 3 2 3 4 7 4 2 4 6 6 4 4 5 8 9 8 7 6 10 7 2 5 3 4 4 4 4 5 7 7 8 8 7 6 6
5 8 9 9 4 3 4 8 3 4 4 5 7 9 8 8 7 7 8 9 7 2 3 2 2 5 6 5 6 8 8 7 6 6 6 7 9 9
3 7 4 10 6 3 6 9 10 7 5 6 5 6 9 9 9 7 4 5 3 3 4 2 2 1 6 6 7 7 7 6 5 3 3 4 6 9
5 4 4 5 7 5 8 10 12 10 9 11 10 12 13 14 10 10 7 2 2 3 3 5 2 3 2 4 4 9 9 8 6 5 3 2 0 5
5 5 3 1 3 5 10 12 11 10 9 11 12 9 11 12 13 12 12 7 4 5 7 5 3 3 2 2 1 1 7 8 6 5 6 6 6 1
5 4 4 4 5 9 11 10 9 9 11 11 9 9 13 11 3 10 10 8 8 6 5 6 3 4 3 2 5 1 2 3 3 3 3 5 6 3
8 5 4 5 7 11 11 11 11 12 11 12 10 7 5 2 3 4 8 10 9 9 8 7 6 5 6 6 4 4 2 3 2 5 6 5 2 3
13 10 9 10 11 13 14 13 14 17 18 15 13 11 8 5 10 10 10 11 10 9 9 9 12 11 8 8 8 9 6 4 2 6 3 1 5 8
14 15 14 14 15 15 13 15 17 18 17 21 19 18 17 13 11 9 8 10 12 13 11 10 10 15 15 13 9 10 10 8 6 6 4 8 8 7
15 17 18 17 17 18 18 18 17 17 17 19 22 23 22 20 17 12 11 12 13 17 15 13 11 9 15 19 20 19 17 12 11 10 8 8 10 7
15 16 18 17 20 20 19 19 20 21 19 17 19 17 18 20 19 15 13 13 12 13 17 17 16 12 4 4 18 13 14 12 14 16 16 15 14 11
13 14 15 17 17 16 18 19 20 21 19 18 20 18 18 20 20 18 17 16 16 16 16 16 17 16 15 10 15 22 14 15 17 21 20 18 19 19
7 5 4 7 9 9 10 12 14 13 15 13 13 14 14 14 18 19 19 20 21 21 19 20 19 18 18 15 8 16 18 18 20 21 18 18 21 21
6 6 7 8 10 11 10 11 11 11 9 8 7 7 7 7 7 10 12 18 22 24 25 24 19 18 17 20 22 23 21 22 24 25 27 26 24 8
8 8 8 10 12 11 11 12 11 10 11 12 14 12 9 10 11 13 15 18 21 22 22 27 27 23 22 21 21 23 23 24 27 29 31 27 26 25
Wind_Direction
64 60 51 52 55 57 34 35 160 98 309 28 60 46 136 205 222 235 241 246 245 232 234 267 259 249 246 248 252 256 256 254 253 247 245 246 249 251
79 59 59 67 68 61 70 88 94 148 157 233 342 351 321 261 254 267 271 271 270 248 259 275 269 251 250 252 255 256 258 260 258 257 254 249 252 255
83 72 38 38 48 50 52 61 64 76 136 309 299 5 11 292 239 249 257 276 281 271 275 268 256 239 240 252 261 264 261 255 257 256 260 263 259 258
82 83 77 57 43 34 28 34 37 41 49 4 319 352 330 355 294 221 251 320 286 242 264 296 232 216 238 252 267 271 263 258 254 254 262 260 252 264
84 73 61 48 38 18 15 25 12 17 27 26 352 23 32 16 43 101 82 54 49 45 321 243 225 222 232 239 258 265 260 255 252 253 256 254 247 247
95 53 56 7 357 27 37 32 20 15 19 23 29 35 22 7 24 18 358 24 40 51 30 5 225 229 247 246 254 260 254 251 249 251 253 251 250 249
167 23 41 24 276 137 1 355 349 352 7 28 62 44 32 21 16 2 352 350 48 35 20 22 135 219 237 248 248 226 234 245 253 254 256 258 260 265
174 219 43 328 97 203 308 332 317 322 317 327 5 14 20 12 7 3 350 356 329 344 350 303 152 171 210 200 184 169 141 103 83 87 90 79 57 3
243 276 278 305 222 239 300 318 305 265 305 295 293 285 295 324 324 328 331 321 291 316 308 255 210 206 167 159 149 144 123 109 100 93 85 71 53 32
304 290 267 253 238 263 330 0 350 319 329 322 291 291 282 305 312 315 314 313 313 35 339 256 218 232 203 176 174 163 147 135 120 103 88 71 50 31
333 6 246 248 239 264 321 342 338 300 286 291 304 292 281 286 294 304 324 343 319 302 347 338 35 271 218 210 197 189 177 171 156 126 100 76 54 34
253 302 325 277 230 263 313 326 327 331 314 295 287 275 282 288 280 268 268 290 306 305 326 346 352 4 252 220 225 225 221 215 215 218 225 225 148 29
281 283 267 203 236 287 302 310 317 310 320 317 313 319 326 291 267 243 232 247 242 247 274 294 287 304 285 287 192 2 231 225 233 222 238 243 213 232
284 282 244 233 270 299 306 312 308 304 303 313 314 341 358 4 246 198 214 239 271 278 276 267 260 264 257 264 264 231 114 146 195 223 218 194 195 216
266 271 264 269 293 303 304 307 309 298 297 283 287 304 331 360 107 181 234 245 250 270 269 277 264 288 263 246 243 240 301 214 177 143 142 157 189 281
250 258 273 274 286 300 304 303 304 291 285 280 274 282 297 259 240 250 249 237 247 271 273 279 265 253 262 256 244 256 259 241 176 170 168 272 308 306
260 268 272 274 286 295 299 300 309 321 270 264 265 269 274 276 264 261 269 262 248 257 277 271 291 244 249 260 272 266 273 273 262 220 261 303 307 313
252 263 270 283 289 298 304 303 299 309 307 270 265 263 264 270 266 267 272 266 261 261 260 271 273 246 245 259 257 266 278 270 248 229 264 284 283 304
246 260 271 283 294 300 302 302 295 293 293 287 264 263 258 257 251 257 268 265 268 265 260 257 260 244 182 230 258 245 247 264 236 234 255 274 260 284
261 274 290 304 307 315 318 316 314 306 302 292 266 253 244 238 243 253 258 260 264 266 271 273 261 253 225 230 240 250 243 248 236 242 259 265 266 274
316 322 360 347 351 360 359 356 351 317 304 286 265 264 267 269 268 266 266 267 268 268 265 265 271 280 261 255 235 242 253 247 252 249 257 260 266 275
30 12 15 2 3 358 353 357 360 356 0 359 1 352 343 330 323 323 313 301 287 276 269 268 266 265 259 242 241 253 252 264 256 256 260 262 259 233
21 9 19 21 21 30 12 14 12 12 360 2 354 343 341 338 332 314 317 324 302 298 294 290 280 262 257 255 255 256 259 261 267 274 279 266 257 257